Regional Weather Roundup
Issued by NWS Jackson, KY

Home | Current Version | Previous Version | Text Only | Print | Product List | Glossary Off
Versions: 1 2 3 4 5 6 7 8 9 10 11 12 13 14 15 16 17 18 19 20 21 22 23 24 25 26 27 28 29 30 31 32 33 34 35 36 37 38 39 40 41 42 43 44 45 46 47 48 49 50

000
ASUS43 KJKL 260410
RWRJKL

EAST KENTUCKY HOURLY WEATHER ROUNDUP
NATIONAL WEATHER SERVICE JACKSON KY
1200 AM EDT TUE JUL 26 2016

NOTE: "FAIR" INDICATES FEW OR NO CLOUDS BELOW 12,000 FEET WITH
NO SIGNIFICANT WEATHER AND/OR OBSTRUCTIONS TO VISIBILITY.

* THESE REPORTS ARE NOT UNDER NWS QUALITY CONTROL AND MAY NOT
  REPORT WEATHER SUCH AS PRECIPITATION AND FOG.

KYZ079-080-083-085-087-088-110-112-115-119-120-260500
...EASTERN KENTUCKY...

CITY           SKY/WX    TMP DP  RH WIND       PRES   REMARKS
JACKSON        MOCLDY    75  72  90 CALM      30.05F
LONDON         CLOUDY    73  68  84 SW3       30.05F
SOMERSET*      MOCLDY    72  72 100 CALM      30.05F
MONTICELLO*    CLEAR    N/A N/A N/A NE8       30.06F
WILLIAMSBURG*  CLOUDY    73  73 100 SE6       30.05F
MIDDLESBORO*   PTCLDY    76  70  82 W3        30.07S
HARLAN APT*      N/A     72  70  94 CALM      30.09F
PIKE CO APT*     N/A     73  73 100 CALM      30.06F
BIG SANDY APT* PTCLDY    75  74  97 W3        30.05S
MOREHEAD APT*  CLOUDY    75  73  94 CALM      30.05S
ASHLAND*       CLOUDY    75  72  88 CALM      30.00S
$$

KYZ035-036-041-042-044-050-067-078-099-260500
...CENTRAL KENTUCKY...

CITY           SKY/WX    TMP DP  RH WIND       PRES   REMARKS
MT STERLING*   PTCLDY    75  73  94 CALM      30.05S
FLEMING/MASON* CLOUDY    74  73  97 S5        30.04R
DANVILLE*      PTCLDY    72  72 100 CALM      30.04F
RICHMOND*      PTCLDY    73  72  94 SE3       30.03S
LEXINGTON      MOCLDY    75  73  93 CALM      30.02F
FRANKFORT      PTCLDY    74  71  91 CALM      30.00F
LOUISVILLE     CLOUDY    78  73  84 SW5       30.00R
LEBANON*         N/A     73  73 100 CALM      30.03R
GLASGOW*       PTCLDY    74  74 100 N6        30.01R
BOWLING GREEN  CLOUDY    76  73  91 W5        30.01S
$$

KYZ091>093-OHZ055-061-077-WVZ005-015-034-035-042-260500
...SOUTHERN OHIO/WEST VIRGINIA...

CITY           SKY/WX    TMP DP  RH WIND       PRES   REMARKS
COVINGTON      CLOUDY    77  75  93 CALM      30.01S
COLUMBUS       CLOUDY    80  68  66 NW5       29.98S
DAYTON         CLOUDY    77  71  82 N6        30.02S
WILMINGTON     MOCLDY    75  73  93 CALM      30.01S
HUNTINGTON       N/A     76  73  91 CALM      30.01S
CHARLESTON       N/A     80  71  74 SW7       30.02S
PINEVILLE*       N/A     71  67  88 MISG      30.13F
BECKLEY          N/A     70  67  90 S3        30.12F
BLUEFIELD        N/A     72  67  84 W7        30.15F
LOGAN CO APT*    N/A     73  72  94 S3        30.05F
$$

VAZ002-007-008-TNZ017-027-036-066-071-260500
...SOUTHWEST VIRGINIA/EAST TENNESSEE...

CITY           SKY/WX    TMP DP  RH WIND       PRES   REMARKS
WISE*            N/A     72  68  88 CALM      30.16F
JONESVILLE*      N/A     73  72  94 CALM      30.10F
ABINGDON*        N/A     74  69  83 CALM      30.11F
BRISTOL        CLOUDY    77  71  82 N3        30.08F
MORRISTOWN*    MOCLDY    79  72  78 CALM      30.06F
SEVIERVILLE*   MOCLDY    81  72  74 S6        30.05S
OAK RIDGE      CLOUDY    82  72  71 CALM      30.05S
CROSSVILLE     PTCLDY    73  71  93 SE3       30.10S
NASHVILLE      PTCLDY    82  71  69 CALM      30.01S
$$

...KEY TO REMARKS...
VSB - VISIBILITY IN MILES
WCI - WIND CHILL INDEX
HX  - HEAT INDEX

$$



USA.gov is the U.S. government's official web portal to all federal, state and local government web resources and services.